Wind_Speed
16 16 18 13 21 15 18 18 15 13 14 16 24 34 36 27 38 45 49 48 39 48 40 36 34 32 31 24 23 22 17 15 15 15 14 15 16 16 16 16 16 16 17
12 12 14 15 10 12 11 21 22 22 17 14 15 32 39 33 47 45 46 44 32 39 41 42 35 30 30 26 25 19 18 19 19 17 16 19 18 17 18 20 21 21 20
9 9 11 11 13 5 6 12 17 23 20 16 17 24 29 37 47 33 32 35 29 34 45 32 31 32 30 26 23 20 21 23 23 21 22 23 20 19 21 24 26 26 25
7 4 6 7 8 11 12 10 7 11 17 18 19 30 21 26 25 28 26 35 34 29 34 34 34 34 30 27 24 24 24 25 25 25 24 25 23 25 27 28 29 31 31
6 4 1 3 5 6 10 12 11 11 9 8 17 23 25 23 23 26 29 32 31 33 38 38 38 34 33 27 28 29 28 28 28 25 22 25 27 28 32 38 32 34 36
11 9 6 1 1 5 7 10 10 12 13 13 13 14 14 17 20 21 26 29 29 29 29 34 36 32 31 32 32 34 34 31 30 30 32 31 32 37 29 37 35 42 40
13 12 5 2 2 3 6 8 9 9 10 12 12 12 12 13 14 16 18 21 22 22 24 27 30 30 33 33 32 31 32 35 33 33 33 34 30 32 37 35 34 38 40
16 14 9 6 3 3 4 5 8 10 10 11 11 11 11 12 14 16 18 17 17 18 21 24 27 31 33 33 31 33 37 37 34 33 31 36 35 40 29 36 30 35 35
16 14 13 10 9 6 5 7 9 9 11 13 15 14 13 13 15 15 16 17 19 21 23 26 28 31 31 33 37 39 39 38 35 34 34 32 33 31 34 35 27 31 36
12 16 15 13 12 12 11 10 11 15 16 15 15 16 17 17 16 19 20 21 22 24 26 28 31 34 38 40 42 44 42 41 39 38 36 38 36 33 37 33 30 34 37
8 9 11 10 12 14 15 18 16 13 15 19 21 20 20 21 22 22 21 22 23 24 27 31 35 39 41 44 46 49 49 50 36 37 38 35 36 38 33 37 32 37 37
11 8 6 10 13 11 10 9 14 17 17 17 22 25 22 29 28 26 25 27 28 30 31 34 37 41 43 49 50 50 36 43 26 31 36 36 35 36 37 42 32 47 39
13 9 7 9 8 7 8 7 8 10 12 15 23 20 22 25 28 28 29 30 30 31 33 34 29 41 51 36 50 53 40 29 34 34 36 37 36 38 36 42 40 39 47
16 15 12 11 10 10 10 3 2 2 4 6 9 15 21 21 23 24 25 26 26 29 28 29 35 23 22 25 25 26 28 34 34 38 40 39 38 43 36 34 46 42 48
18 16 16 14 12 13 15 10 8 8 8 10 11 11 10 12 17 21 23 25 27 28 27 26 25 27 27 27 29 33 35 36 39 40 42 39 48 45 51 46 50 48 46
18 20 22 20 16 15 16 13 12 13 14 15 15 15 17 17 18 20 22 23 23 25 27 27 26 27 29 30 33 37 40 40 40 41 45 46 47 52 48 52 46 43 48
25 18 18 19 19 14 15 15 17 18 21 22 21 21 21 21 22 23 23 25 27 28 29 31 33 34 34 35 39 40 40 46 48 39 46 51 53 46 40 49 49 53 50
24 25 21 21 15 15 18 18 19 20 24 25 24 25 27 28 26 26 26 27 29 31 33 33 36 38 39 40 37 36 42 49 36 44 54 49 44 41 44 51 52 50 51
22 22 20 21 17 19 21 20 20 25 29 28 27 28 29 30 28 28 29 30 31 33 33 33 34 35 34 36 38 35 40 43 38 50 37 44 48 47 49 50 52 54 52
21 22 23 22 22 22 21 20 22 24 24 25 26 28 29 30 31 31 32 33 32 30 32 33 35 35 33 33 34 35 43 42 39 48 47 48 51 52 50 54 55 56 53
23 25 27 25 21 19 18 18 16 16 17 20 22 26 29 29 30 32 31 30 30 32 32 33 33 31 29 27 32 37 43 44 47 48 50 51 52 53 55 55 57 56 55
24 25 23 20 16 15 13 13 13 15 17 19 21 24 26 27 28 29 30 31 32 33 32 32 29 31 28 32 35 40 44 50 53 50 49 52 53 53 54 56 58 57 57
23 23 18 14 13 13 12 12 13 14 16 18 19 22 24 26 28 30 32 32 32 32 31 30 30 30 34 39 45 48 50 46 46 48 46 48 53 55 56 55 54 55 56
22 18 16 14 13 12 11 11 12 15 18 19 21 22 24 25 27 28 28 30 31 33 31 31 34 38 42 44 45 43 41 41 45 49 53 54 54 54 52 51 51 52 51
21 18 14 13 12 13 13 15 18 20 21 24 25 26 27 28 28 29 29 28 26 26 29 34 36 37 38 40 44 47 50 52 54 54 53 52 51 51 51 51 51 51 50
15 12 14 14 15 15 14 17 19 22 23 26 27 27 27 27 26 25 24 25 26 28 31 34 37 40 43 46 48 50 50 52 53 53 52 52 51 51 50 50 49 48 48
Wind_Direction
335 347 350 333 207 207 194 195 167 160 181 187 207 203 200 193 185 192 201 213 198 197 202 200 208 206 219 227 228 235 238 249 262 266 269 271 269 269 275 278 279 284 289
339 350 3 21 168 190 208 194 207 217 191 221 226 212 196 192 195 208 211 217 232 206 207 209 217 217 224 224 227 241 245 252 257 265 268 265 267 272 277 277 278 280 287
325 349 7 27 55 123 200 204 205 212 211 209 214 199 211 200 201 220 225 224 218 209 213 211 214 220 222 224 231 243 250 252 259 264 265 270 277 277 273 275 276 279 282
287 333 8 33 56 82 92 102 150 172 214 230 205 214 238 231 225 232 225 230 226 221 226 206 212 219 221 229 235 247 246 250 259 268 270 269 273 278 275 273 278 280 283
239 257 313 13 82 103 109 113 111 109 136 169 202 202 211 201 217 228 233 219 213 219 209 201 210 217 224 232 239 242 251 256 259 266 275 277 277 283 289 282 271 272 273
224 230 255 238 179 134 131 132 129 127 124 127 134 144 159 178 196 201 200 200 198 203 206 210 213 223 229 234 230 241 254 256 258 260 262 263 283 271 275 277 298 278 263
208 216 223 263 247 186 155 152 151 144 138 139 145 151 161 166 167 180 187 189 194 198 204 206 215 224 237 241 243 250 256 261 262 263 265 269 274 273 277 292 289 290 279
206 207 193 182 179 263 230 196 183 174 167 165 165 171 177 175 180 186 191 197 204 207 213 220 227 235 241 243 248 252 259 262 262 267 273 275 267 271 272 290 280 281 284
219 221 215 222 222 230 241 235 232 219 205 194 192 193 193 195 200 203 208 212 216 221 225 230 236 240 242 247 252 256 255 257 257 261 266 276 268 266 276 285 274 287 279
213 217 221 229 244 244 247 246 240 235 235 232 224 220 219 220 220 221 223 226 227 229 235 239 245 251 252 253 254 252 251 254 256 258 266 270 267 280 277 285 272 280 276
196 194 203 217 234 239 256 259 251 247 240 239 242 245 243 240 236 236 239 244 246 247 247 247 248 249 250 251 255 254 256 252 250 252 260 270 270 272 271 283 278 278 279
196 192 221 230 227 239 241 269 259 258 252 247 246 244 257 255 252 251 250 249 251 252 254 257 261 264 261 253 251 257 262 260 258 256 261 267 263 269 278 270 285 272 279
203 217 245 247 252 243 237 285 248 245 249 244 243 234 242 244 245 243 248 254 258 259 260 261 279 274 271 277 265 255 259 260 269 268 263 269 272 269 280 264 283 281 280
223 230 249 258 261 251 243 268 167 180 232 263 258 237 247 250 250 249 250 253 259 260 264 266 258 271 282 276 266 252 255 259 269 265 258 278 272 270 271 276 265 283 275
226 231 241 240 258 259 244 260 259 259 270 266 267 263 270 267 258 254 256 261 265 269 271 276 278 268 273 274 271 269 265 267 263 265 262 279 262 279 266 280 268 268 266
230 237 239 242 250 259 248 250 263 267 270 271 273 265 266 261 267 267 268 266 268 272 274 277 278 273 271 272 272 270 273 270 272 270 267 267 268 270 252 268 259 269 283
254 238 239 236 237 253 237 245 258 258 261 265 270 272 260 261 269 271 268 270 278 277 277 278 277 276 276 274 271 270 273 262 269 262 263 266 275 259 283 265 271 280 285
243 229 229 227 236 241 245 251 254 265 264 265 267 265 263 265 272 270 276 278 279 279 281 282 281 280 279 276 277 276 278 267 267 274 270 262 262 279 267 268 280 279 274
231 229 223 220 233 239 244 248 263 265 258 258 260 260 262 269 272 273 277 281 282 283 284 283 280 280 275 274 267 272 272 258 281 274 266 283 270 270 270 275 272 270 270
227 219 221 222 232 239 244 261 271 270 266 259 248 255 260 268 269 273 277 279 278 280 284 285 286 281 276 281 283 271 262 264 266 283 279 281 267 265 269 267 266 268 273
215 213 218 225 232 244 260 264 268 276 278 274 266 264 268 272 275 276 277 275 277 282 286 287 289 286 283 270 270 275 277 281 284 276 271 265 263 269 271 267 269 276 280
216 215 219 226 239 255 260 271 280 285 284 281 277 274 274 274 274 274 275 277 279 280 283 287 285 286 280 275 273 278 278 277 272 263 262 264 269 274 279 286 289 288 286
231 226 224 236 247 260 268 279 284 285 286 284 281 280 280 279 278 277 279 283 285 288 291 292 289 288 277 279 276 268 267 264 264 270 277 285 288 289 289 289 290 291 291
210 213 222 232 247 250 260 270 284 288 284 285 286 285 284 283 283 283 284 287 292 295 294 293 288 278 267 267 267 269 274 279 284 287 287 287 288 288 289 290 290 290 290
222 220 229 239 251 258 263 276 287 287 289 288 289 291 291 289 287 286 288 291 293 292 286 279 277 278 280 282 284 286 287 287 287 288 288 289 290 291 291 291 291 292 292
226 233 253 257 255 255 274 285 288 287 287 289 291 292 291 289 288 287 289 291 288 285 283 284 285 286 287 287 288 288 289 290 291 293 294 295 295 295 294 294 293 292 292
Height
3065 3060 3055 3049 3050 3053 3055 3058 3059 3062 3065 3069 3072 3075 3080 3085 3089 3097 3102 3104 3109 3115 3120 3124 3131 3135 3138 3141 3143 3144 3145 3146 3147 3148 3148 3147 3149 3148 3148 3149 3149 3149 3149
3064 3061 3056 3053 3050 3051 3054 3057 3059 3059 3065 3067 3069 3071 3076 3081 3089 3092 3098 3104 3107 3110 3115 3121 3126 3131 3135 3137 3139 3141 3142 3143 3143 3145 3144 3144 3145 3144 3145 3145 3146 3145 3143
3063 3061 3058 3056 3054 3052 3053 3054 3058 3061 3063 3066 3069 3072 3076 3078 3086 3088 3093 3098 3102 3106 3112 3118 3125 3129 3132 3134 3136 3136 3139 3140 3140 3140 3139 3139 3140 3140 3140 3140 3140 3138 3137
3062 3061 3061 3059 3057 3056 3055 3054 3056 3057 3061 3063 3066 3071 3074 3077 3083 3088 3090 3094 3099 3104 3108 3115 3120 3124 3127 3129 3132 3132 3135 3136 3136 3135 3135 3134 3133 3133 3134 3134 3134 3132 3131
3061 3061 3060 3061 3060 3060 3058 3059 3060 3060 3060 3062 3064 3069 3074 3078 3082 3085 3087 3092 3097 3102 3106 3109 3115 3118 3122 3125 3127 3128 3129 3130 3131 3130 3129 3128 3127 3127 3127 3125 3125 3124 3122
3058 3060 3060 3062 3062 3062 3062 3062 3063 3064 3065 3066 3068 3071 3075 3077 3080 3083 3086 3091 3096 3099 3103 3108 3112 3116 3119 3120 3122 3123 3123 3125 3124 3124 3122 3120 3120 3118 3119 3117 3116 3114 3111
3055 3057 3059 3060 3062 3064 3064 3064 3065 3066 3067 3068 3071 3074 3077 3079 3081 3084 3087 3091 3095 3098 3101 3104 3108 3110 3115 3117 3117 3117 3117 3117 3117 3117 3116 3112 3111 3111 3110 3110 3106 3104 3104
3052 3054 3056 3059 3060 3061 3063 3065 3068 3067 3069 3070 3072 3075 3078 3080 3083 3085 3088 3092 3095 3097 3100 3102 3105 3108 3109 3110 3110 3109 3109 3109 3111 3111 3109 3107 3104 3104 3101 3100 3098 3095 3095
3049 3052 3054 3056 3058 3060 3062 3064 3065 3067 3070 3072 3072 3076 3078 3080 3083 3084 3087 3089 3091 3094 3096 3098 3099 3101 3102 3102 3101 3100 3101 3102 3102 3102 3101 3098 3097 3096 3093 3091 3089 3087 3085
3046 3049 3051 3053 3055 3057 3058 3060 3062 3065 3068 3069 3071 3074 3075 3077 3078 3079 3083 3084 3087 3089 3090 3091 3092 3093 3093 3093 3093 3092 3093 3092 3092 3092 3092 3091 3088 3087 3083 3082 3080 3080 3078
3043 3046 3049 3051 3052 3053 3055 3056 3057 3059 3061 3064 3068 3070 3072 3074 3075 3076 3078 3080 3081 3082 3083 3085 3086 3085 3084 3085 3083 3080 3078 3076 3080 3081 3081 3081 3079 3078 3073 3074 3072 3070 3069
3041 3043 3046 3048 3049 3050 3050 3051 3052 3054 3057 3060 3062 3065 3065 3067 3068 3070 3073 3074 3076 3077 3078 3078 3078 3075 3072 3069 3068 3069 3062 3064 3068 3071 3070 3070 3070 3068 3067 3064 3062 3061 3060
3038 3041 3043 3045 3047 3048 3049 3049 3049 3050 3053 3055 3057 3060 3060 3061 3063 3065 3066 3067 3068 3069 3069 3069 3067 3065 3060 3056 3057 3055 3055 3059 3060 3060 3061 3061 3059 3059 3057 3053 3053 3051 3049
3036 3038 3040 3042 3044 3045 3046 3047 3048 3049 3051 3052 3054 3055 3056 3057 3058 3059 3059 3060 3060 3060 3060 3059 3052 3055 3053 3051 3049 3050 3050 3051 3051 3052 3052 3050 3046 3046 3045 3045 3043 3041 3038
3032 3034 3037 3039 3040 3041 3042 3043 3044 3045 3047 3047 3048 3049 3049 3049 3050 3051 3052 3053 3052 3052 3052 3051 3048 3047 3047 3045 3045 3044 3043 3043 3042 3041 3040 3038 3037 3035 3033 3033 3031 3028 3027
3027 3029 3031 3033 3035 3036 3037 3038 3039 3040 3040 3041 3042 3043 3043 3043 3043 3043 3043 3043 3044 3043 3042 3041 3040 3039 3039 3039 3038 3037 3035 3033 3031 3031 3029 3027 3026 3023 3018 3021 3019 3017 3014
3021 3022 3024 3026 3029 3030 3031 3032 3033 3034 3034 3034 3035 3036 3036 3036 3036 3036 3035 3035 3035 3034 3033 3032 3032 3031 3030 3030 3028 3026 3025 3023 3019 3018 3016 3013 3013 3012 3012 3011 3008 3005 3001
3013 3016 3018 3020 3023 3024 3025 3026 3027 3027 3027 3028 3028 3029 3028 3028 3028 3028 3028 3027 3026 3025 3024 3022 3021 3020 3018 3016 3015 3014 3012 3008 3005 3008 3006 3004 3003 3001 3000 2998 2995 2992 2989
3006 3009 3012 3014 3017 3018 3019 3020 3020 3020 3019 3019 3020 3021 3020 3020 3020 3020 3019 3018 3017 3016 3015 3014 3011 3009 3008 3006 3006 3004 3002 3000 2998 2998 2997 2995 2994 2991 2987 2983 2981 2978 2973
3001 3004 3006 3008 3010 3012 3013 3013 3012 3011 3011 3011 3012 3012 3012 3012 3012 3012 3012 3011 3010 3008 3007 3005 3002 3000 2999 2997 2996 2995 2993 2992 2989 2987 2985 2982 2979 2975 2973 2969 2965 2961 2958
2995 2997 3000 3002 3005 3006 3007 3006 3005 3005 3004 3004 3005 3006 3006 3006 3006 3005 3004 3003 3002 3000 2998 2996 2994 2991 2989 2989 2989 2987 2984 2982 2979 2976 2972 2968 2964 2960 2957 2954 2950 2947 2944
2991 2992 2994 2997 2999 3000 3000 3000 3000 2999 2999 2999 2999 2999 2999 2999 2998 2997 2996 2994 2993 2991 2989 2987 2985 2984 2983 2982 2980 2978 2975 2971 2967 2962 2958 2954 2951 2949 2946 2943 2939 2935 2932
2988 2990 2991 2992 2993 2994 2994 2994 2994 2993 2993 2993 2993 2992 2992 2991 2990 2989 2987 2986 2985 2983 2981 2979 2977 2976 2974 2971 2969 2965 2961 2957 2954 2952 2949 2947 2943 2938 2933 2929 2925 2921 2918
2981 2984 2986 2986 2988 2988 2987 2987 2987 2987 2986 2985 2985 2984 2983 2981 2980 2979 2977 2976 2975 2973 2971 2969 2968 2965 2962 2959 2956 2954 2951 2948 2945 2942 2938 2933 2928 2923 2918 2914 2910 2906 2903
2977 2980 2981 2980 2982 2982 2982 2981 2980 2979 2979 2978 2976 2975 2973 2972 2970 2969 2968 2967 2965 2965 2963 2961 2958 2956 2953 2950 2947 2944 2940 2936 2932 2928 2923 2918 2913 2909 2904 2900 2896 2892 2888
2972 2973 2975 2975 2975 2975 2975 2975 2975 2974 2972 2971 2969 2968 2966 2964 2962 2961 2960 2959 2958 2957 2955 2952 2950 2947 2943 2939 2935 2932 2927 2922 2918 2913 2908 2904 2899 2895 2890 2886 2882 2878 2875